[[{"header":{"parameterUnit":"m.s-1","parameterCategory":2,"la1":30.2992,"la2":30.254,"lo1":-89.0895,"lo2":-89.0443,"dy":0.0025,"dx":0.0025,"nx":19,"ny":19,"refTime":"2026-05-09T09:00:00:Z","depth":"0","parameterNumber":2,"parameterNumberName":"U-component_of_CURRENTS"},"data":[0,0,0,0.0451,0.0452,0.0479,0.0479,0.0468,0.0468,0,0,0,0,0,0,0,0,0,0,0,0.0431,0.0431,0.0451,0.0452,0.0479,0.0479,0.0468,0.0468,0,0,0,0,0,0,0,0,0,0,0,0.043,0.0431,0.0431,0.0452,0.0479,0.0479,0.0468,0.0456,0,0,0,0,0,0,0,0,0,0,0.0435,0.0408,0.0431,0.0431,0.0452,0.0479,0.0479,0.0456,0.0457,0.0446,0,0.045,0,0.0467,0.0467,0.0467,0,0,0,0.0442,0.0407,0.0437,0.0431,0.0453,0.0479,0.0464,0.0457,0.0458,0.0446,0.045,0.0451,0.0467,0.0467,0.0467,0.0397,0.0396,0,0,0.044,0.0414,0.0436,0.0437,0.046,0.0463,0.0465,0.0458,0.0445,0.0451,0.0451,0.0467,0.0467,0.0467,0.0397,0.0396,0,0,0,0.0443,0.0412,0.0442,0.0437,0.0451,0.0464,0.0466,0.0445,0.0461,0.0451,0.0467,0.0467,0.0467,0.0398,0.0397,0.0373,0,0,0,0.0441,0.0415,0.0441,0.0422,0.0451,0.0451,0.0453,0.0461,0.0461,0.0467,0.0467,0.0466,0.0399,0.0397,0.0375,0.0372,0,0,0,0.0429,0.0413,0.0422,0.0421,0.0442,0.0452,0.0466,0.0461,0.0471,0.0467,0.0466,0.0399,0.0398,0.0377,0.0375,0.0352,0,0,0,0.0394,0.0387,0.0421,0.0417,0.0442,0.0447,0.0466,0.0461,0.0455,0.0467,0.0399,0.0397,0.0378,0.0377,0.0354,0.0382,0.0376,0,0,0.0368,0.0383,0.0384,0.0416,0.0413,0.0443,0.0413,0.0418,0.0423,0.0398,0.0397,0.0374,0.0375,0.0353,0.0289,0.0287,0,0,0,0.0366,0.0359,0.0363,0.0374,0.0396,0.0388,0.0397,0.039,0.0367,0.0416,0.0348,0.035,0.0336,0.0356,0.0352,0.0396,0.039,0.039,0.039,0.0257,0.0302,0.0291,0.0331,0.0335,0.0343,0.0329,0.0316,0.033,0.0306,0.031,0.0251,0.0269,0.0268,0.0311,0.0284,0.0284,0.0283,0.0283,0.0208,0.0213,0.0249,0.026,0.0276,0.0262,0.0259,0.0263,0.0233,0.0254,0.0242,0.0305,0.0263,0.0311,0.0281,0.0282,0.0282,0.0282,0.0282,0.0144,0.0157,0.0175,0.0203,0.0201,0.0221,0.0211,0.0213,0.021,0.0198,0.0224,0.0225,0.0286,0.0195,0.0195,0.0195,0.0195,0.0194,0.0194,0.0084,0.0105,0.0115,0.0145,0.0158,0.0173,0.0187,0.0183,0.019,0.0198,0.0198,0.0264,0.0224,0.0249,0.0192,0.0193,0.0193,0.0193,0.0193,0.0035,0.0053,0.007,0.0086,0.0125,0.0147,0.0161,0.0178,0.0168,0.0173,0.0247,0.0194,0.0207,0.021,0.0234,0.0177,0.0177,0.0177,0.0177,-0.0002,0.001,0.0039,0.0067,0.0093,0.0139,0.017,0.0207,0.0243,0.0272,0.0263,0.0296,0.0295,0.0315,0.0316,0.0342,0.0314,0.0314,0.0314,-0.0029,-0.0008,-0.0001,0.0047,0.0088,0.0137,0.0194,0.028,0.0332,0.0323,0.0316,0.031,0.0362,0.0356,0.0393,0.039,0.0436,0,0]},{"header":{"parameterUnit":"m.s-1","parameterCategory":2,"la1":30.2992,"la2":30.254,"lo1":-89.0895,"lo2":-89.0443,"dy":0.0025,"dx":0.0025,"nx":19,"ny":19,"refTime":"2026-05-09T09:00:00:Z","depth":"0","parameterNumber":3,"parameterNumberName":"V-component_of_CURRENTS"},"data":[0,0,0,-0.0632,-0.0632,-0.0597,-0.0597,-0.0438,-0.0437,0,0,0,0,0,0,0,0,0,0,0,-0.0643,-0.0643,-0.0632,-0.0632,-0.0597,-0.0597,-0.0439,-0.0437,0,0,0,0,0,0,0,0,0,0,0,-0.0643,-0.0643,-0.0643,-0.0632,-0.0597,-0.0597,-0.0439,-0.0489,0,0,0,0,0,0,0,0,0,0,-0.0535,-0.0561,-0.0643,-0.0643,-0.0632,-0.0597,-0.0597,-0.0493,-0.0486,-0.0428,0,-0.0437,0,-0.0439,-0.0425,-0.0425,0,0,0,-0.0613,-0.0567,-0.0568,-0.0643,-0.0632,-0.0598,-0.0608,-0.049,-0.0482,-0.0418,-0.0435,-0.043,-0.0437,-0.0424,-0.0424,-0.0334,-0.0334,0,0,-0.0615,-0.0617,-0.0574,-0.0564,-0.0639,-0.0609,-0.0607,-0.0486,-0.0475,-0.0435,-0.0427,-0.0434,-0.0423,-0.0422,-0.0334,-0.0334,0,0,0,-0.0634,-0.0619,-0.0625,-0.057,-0.0576,-0.0609,-0.0606,-0.048,-0.0487,-0.0425,-0.0432,-0.0422,-0.042,-0.0333,-0.0334,-0.0383,0,0,0,-0.0634,-0.0631,-0.0626,-0.0624,-0.058,-0.0542,-0.0603,-0.0495,-0.0482,-0.0433,-0.0422,-0.0418,-0.0333,-0.0334,-0.0381,-0.0393,0,0,0,-0.0641,-0.0631,-0.0636,-0.0625,-0.062,-0.0545,-0.0543,-0.0493,-0.0486,-0.0425,-0.0418,-0.0333,-0.0334,-0.0379,-0.039,-0.0401,0,0,0,-0.0632,-0.064,-0.0636,-0.0638,-0.0621,-0.06,-0.0544,-0.0506,-0.046,-0.0421,-0.0333,-0.0334,-0.0379,-0.0389,-0.0399,-0.0446,-0.0457,0,0,-0.0637,-0.064,-0.0642,-0.0638,-0.0632,-0.0603,-0.0577,-0.0494,-0.045,-0.036,-0.0359,-0.0382,-0.039,-0.0401,-0.0488,-0.0498,0,0,0,-0.064,-0.0641,-0.0638,-0.0634,-0.062,-0.0598,-0.0535,-0.0508,-0.0449,-0.0431,-0.0383,-0.0386,-0.0391,-0.0416,-0.0424,-0.0396,-0.0337,-0.0337,-0.0337,-0.0623,-0.063,-0.0628,-0.0629,-0.0617,-0.0582,-0.0561,-0.0512,-0.0462,-0.0458,-0.0428,-0.047,-0.0499,-0.0505,-0.0476,-0.0434,-0.0434,-0.0434,-0.0434,-0.062,-0.0614,-0.0623,-0.0627,-0.0616,-0.0593,-0.0558,-0.0539,-0.0503,-0.0472,-0.0475,-0.0469,-0.0516,-0.0482,-0.0437,-0.0437,-0.0436,-0.0436,-0.0436,-0.0595,-0.0596,-0.061,-0.0618,-0.0612,-0.0597,-0.0587,-0.0564,-0.054,-0.0545,-0.0552,-0.0552,-0.0518,-0.0543,-0.0544,-0.0544,-0.0544,-0.0544,-0.0544,-0.056,-0.0577,-0.0585,-0.0601,-0.0604,-0.0606,-0.0597,-0.0596,-0.0608,-0.0602,-0.0602,-0.0536,-0.0503,-0.0494,-0.0546,-0.0546,-0.0545,-0.0545,-0.0545,-0.0517,-0.0535,-0.0553,-0.0564,-0.0581,-0.0592,-0.0603,-0.0646,-0.0654,-0.0677,-0.0637,-0.063,-0.0613,-0.0606,-0.06,-0.0676,-0.0676,-0.0676,-0.0676,-0.0482,-0.0494,-0.052,-0.0537,-0.0552,-0.0577,-0.0617,-0.0677,-0.0708,-0.0718,-0.0674,-0.0664,-0.066,-0.0643,-0.0636,-0.0629,-0.071,-0.071,-0.071,-0.045,-0.0474,-0.048,-0.0515,-0.0534,-0.0569,-0.061,-0.0676,-0.0741,-0.0705,-0.0626,-0.0624,-0.0601,-0.0596,-0.056,-0.0553,-0.0538,0,0]}],[{"header":{"parameterUnit":"m.s-1","parameterCategory":2,"la1":30.2992,"la2":30.254,"lo1":-89.0895,"lo2":-89.0443,"dy":0.0025,"dx":0.0025,"nx":19,"ny":19,"refTime":"2026-05-09T09:00:00:Z","depth":"2","parameterNumber":2,"parameterNumberName":"U-component_of_CURRENTS"},"data":[0,0,0,-0.1425,-0.1426,-0.1432,-0.1432,-0.1402,-0.1402,0,0,0,0,0,0,0,0,0,0,0,-0.1403,-0.1403,-0.1425,-0.1426,-0.1432,-0.1432,-0.1402,-0.1402,0,0,0,0,0,0,0,0,0,0,0,-0.1404,-0.1403,-0.1403,-0.1426,-0.1432,-0.1432,-0.1402,-0.1405,0,0,0,0,0,0,0,0,0,0,-0.1403,-0.1385,-0.1403,-0.1403,-0.1426,-0.1432,-0.1432,-0.1405,-0.1405,-0.1392,0,-0.1385,0,-0.1405,-0.14,-0.14,0,0,0,-0.1416,-0.1385,-0.1398,-0.1403,-0.1426,-0.1432,-0.1426,-0.1405,-0.1404,-0.1391,-0.1385,-0.1385,-0.1405,-0.14,-0.14,-0.1392,-0.1392,0,0,-0.1416,-0.1395,-0.1399,-0.1398,-0.1417,-0.1426,-0.1427,-0.1405,-0.1392,-0.1385,-0.1385,-0.1404,-0.14,-0.14,-0.1392,-0.1392,0,0,0,-0.1421,-0.1394,-0.1408,-0.1398,-0.1409,-0.1427,-0.1427,-0.1392,-0.14,-0.1385,-0.1404,-0.14,-0.1399,-0.1392,-0.1392,-0.1374,0,0,0,-0.1421,-0.1399,-0.1408,-0.1394,-0.1409,-0.1405,-0.1414,-0.1401,-0.14,-0.1404,-0.14,-0.1399,-0.1391,-0.1392,-0.1374,-0.1367,0,0,0,-0.1405,-0.1398,-0.1398,-0.1393,-0.1405,-0.1407,-0.1412,-0.1401,-0.1412,-0.14,-0.1399,-0.1391,-0.1392,-0.1375,-0.1367,-0.1327,0,0,0,-0.1386,-0.1386,-0.1396,-0.1405,-0.1405,-0.1428,-0.1412,-0.1411,-0.1401,-0.14,-0.1391,-0.1392,-0.1375,-0.1367,-0.1328,-0.1139,-0.112,0,0,-0.1383,-0.1384,-0.1395,-0.1406,-0.1431,-0.1427,-0.144,-0.1413,-0.1402,-0.1394,-0.1394,-0.1374,-0.1367,-0.1327,-0.1157,-0.1136,0,0,0,-0.1394,-0.1393,-0.1405,-0.1418,-0.144,-0.1441,-0.1431,-0.1425,-0.14,-0.1401,-0.1385,-0.1382,-0.1356,-0.1245,-0.123,-0.1393,-0.1393,-0.1393,-0.1393,-0.1337,-0.1374,-0.1387,-0.1422,-0.1431,-0.1444,-0.1439,-0.1426,-0.1412,-0.1398,-0.1375,-0.1345,-0.1228,-0.1214,-0.1385,-0.1385,-0.1385,-0.1385,-0.1385,-0.133,-0.1327,-0.1369,-0.1383,-0.1396,-0.1389,-0.1416,-0.1405,-0.1379,-0.1382,-0.1358,-0.1243,-0.1195,-0.1384,-0.1384,-0.1384,-0.1384,-0.1384,-0.1384,-0.1274,-0.1275,-0.1291,-0.1308,-0.1304,-0.1327,-0.1316,-0.1341,-0.1343,-0.1334,-0.1174,-0.1172,-0.1315,-0.1295,-0.1295,-0.1294,-0.1294,-0.1294,-0.1294,-0.1185,-0.1216,-0.1191,-0.1223,-0.1208,-0.1206,-0.1238,-0.1221,-0.1155,-0.1137,-0.1135,-0.1315,-0.1318,-0.131,-0.1291,-0.1291,-0.1292,-0.1292,-0.1292,-0.1095,-0.1092,-0.108,-0.1066,-0.1076,-0.1056,-0.11,-0.0993,-0.0975,-0.0897,-0.102,-0.1027,-0.1008,-0.1018,-0.1003,-0.0906,-0.0906,-0.0906,-0.0906,-0.0998,-0.1012,-0.0973,-0.0966,-0.097,-0.0989,-0.0855,-0.0763,-0.0735,-0.0718,-0.0728,-0.0713,-0.073,-0.0697,-0.0716,-0.0696,-0.0519,-0.0519,-0.0519,-0.0923,-0.0935,-0.0887,-0.0911,-0.0926,-0.09,-0.0728,-0.0593,-0.0536,-0.0514,-0.0767,-0.086,-0.086,-0.088,-0.085,-0.0871,-0.0848,0,0]},{"header":{"parameterUnit":"m.s-1","parameterCategory":2,"la1":30.2992,"la2":30.254,"lo1":-89.0895,"lo2":-89.0443,"dy":0.0025,"dx":0.0025,"nx":19,"ny":19,"refTime":"2026-05-09T09:00:00:Z","depth":"2","parameterNumber":3,"parameterNumberName":"V-component_of_CURRENTS"},"data":[0,0,0,-0.0102,-0.0103,-0.0169,-0.0169,-0.0178,-0.0178,0,0,0,0,0,0,0,0,0,0,0,-0.009,-0.0091,-0.0101,-0.0103,-0.0169,-0.017,-0.0178,-0.0178,0,0,0,0,0,0,0,0,0,0,0,-0.009,-0.0091,-0.0091,-0.0103,-0.0169,-0.017,-0.0178,-0.0148,0,0,0,0,0,0,0,0,0,0,-0.0094,-0.0102,-0.009,-0.0091,-0.0104,-0.0169,-0.017,-0.0148,-0.015,-0.0125,0,-0.0146,0,-0.0154,-0.0177,-0.0177,0,0,0,-0.0107,-0.0101,-0.0106,-0.0092,-0.0104,-0.0169,-0.014,-0.015,-0.0152,-0.0128,-0.0146,-0.0147,-0.0154,-0.0176,-0.0176,-0.0165,-0.0165,0,0,-0.0103,-0.011,-0.0104,-0.0108,-0.0133,-0.0138,-0.0142,-0.0152,-0.0165,-0.0146,-0.0147,-0.0154,-0.0176,-0.0176,-0.0165,-0.0165,0,0,0,-0.009,-0.0108,-0.0115,-0.0107,-0.0121,-0.014,-0.0145,-0.0165,-0.0165,-0.0147,-0.0154,-0.0176,-0.0176,-0.0165,-0.0165,-0.0201,0,0,0,-0.0088,-0.0099,-0.0113,-0.0119,-0.0121,-0.0156,-0.0158,-0.0165,-0.0166,-0.0154,-0.0176,-0.0176,-0.0165,-0.0165,-0.0199,-0.0208,0,0,0,-0.0085,-0.0099,-0.0108,-0.0119,-0.0143,-0.0156,-0.0158,-0.0166,-0.0169,-0.0177,-0.0176,-0.0165,-0.0165,-0.0199,-0.0207,-0.0155,0,0,0,-0.0086,-0.0118,-0.0109,-0.0139,-0.0142,-0.0155,-0.0158,-0.0182,-0.0192,-0.0176,-0.0165,-0.0165,-0.0198,-0.0206,-0.0155,-0.0107,-0.0102,0,0,-0.0123,-0.0123,-0.0136,-0.0128,-0.0145,-0.0146,-0.0161,-0.0184,-0.0181,-0.0156,-0.0157,-0.02,-0.0207,-0.0155,-0.0113,-0.0108,0,0,0,-0.0143,-0.0161,-0.0161,-0.0173,-0.0165,-0.0174,-0.0185,-0.0178,-0.0193,-0.0187,-0.0192,-0.0194,-0.016,-0.0132,-0.0128,-0.0165,-0.0165,-0.0165,-0.0165,-0.0217,-0.0198,-0.0221,-0.0206,-0.0205,-0.0196,-0.0192,-0.0185,-0.019,-0.0203,-0.0218,-0.0197,-0.0169,-0.0165,-0.0215,-0.0215,-0.0215,-0.0215,-0.0215,-0.0279,-0.03,-0.0267,-0.0292,-0.0266,-0.0279,-0.0223,-0.0225,-0.0196,-0.0223,-0.0188,-0.0165,-0.0163,-0.0218,-0.0217,-0.0217,-0.0217,-0.0217,-0.0216,-0.0344,-0.0351,-0.0364,-0.0378,-0.0381,-0.035,-0.0304,-0.0278,-0.0232,-0.0215,-0.0152,-0.0151,-0.0195,-0.0204,-0.0204,-0.0204,-0.0204,-0.0204,-0.0204,-0.0418,-0.0419,-0.0461,-0.0465,-0.0474,-0.0448,-0.0367,-0.0298,-0.0208,-0.0173,-0.0172,-0.0192,-0.0192,-0.0192,-0.0201,-0.0202,-0.0202,-0.0202,-0.0202,-0.05,-0.0508,-0.0559,-0.0578,-0.0551,-0.047,-0.0383,-0.0209,-0.0145,-0.0074,-0.0113,-0.0116,-0.0085,-0.0087,-0.0083,-0.0064,-0.0064,-0.0064,-0.0064,-0.0558,-0.0563,-0.062,-0.0629,-0.058,-0.0474,-0.0289,-0.0087,0.0026,0.011,0.0103,0.0098,0.0088,0.013,0.0122,0.0131,0.0206,0.0207,0.0208,-0.0599,-0.0615,-0.0649,-0.0653,-0.0586,-0.0436,-0.0235,0.0119,0.0396,0.0221,0.0183,-0.0052,-0.0081,-0.0088,-0.0043,-0.0048,-0.0041,0,0]}],[{"header":{"parameterUnit":"m.s-1","parameterCategory":2,"la1":30.2992,"la2":30.254,"lo1":-89.0895,"lo2":-89.0443,"dy":0.0025,"dx":0.0025,"nx":19,"ny":19,"refTime":"2026-05-09T09:00:00:Z","depth":"4","parameterNumber":2,"parameterNumberName":"U-component_of_CURRENTS"},"data":[0,0,0,-0.0657,-0.066,-0.0813,-0.0813,-0.0936,-0.0937,0,0,0,0,0,0,0,0,0,0,0,-0.0625,-0.0627,-0.0657,-0.0661,-0.0812,-0.0813,-0.0936,-0.0937,0,0,0,0,0,0,0,0,0,0,0,-0.0625,-0.0626,-0.0628,-0.0661,-0.0812,-0.0813,-0.0936,-0.084,0,0,0,0,0,0,0,0,0,0,-0.0701,-0.0633,-0.0626,-0.0628,-0.0662,-0.0812,-0.0813,-0.0836,-0.0846,-0.0845,0,-0.089,0,-0.0905,-0.0943,-0.0943,0,0,0,-0.0665,-0.0625,-0.071,-0.0629,-0.0663,-0.0812,-0.0745,-0.0842,-0.0853,-0.0858,-0.0892,-0.0896,-0.0907,-0.0943,-0.0944,-0.1076,-0.1076,0,0,-0.0656,-0.0605,-0.0703,-0.0718,-0.0729,-0.074,-0.075,-0.0849,-0.0843,-0.0892,-0.0899,-0.0909,-0.0944,-0.0945,-0.1075,-0.1076,0,0,0,-0.063,-0.0598,-0.0682,-0.0713,-0.074,-0.0745,-0.0756,-0.0839,-0.0881,-0.09,-0.091,-0.0945,-0.0946,-0.1074,-0.1075,-0.1073,0,0,0,-0.0625,-0.0584,-0.0678,-0.0642,-0.0739,-0.0787,-0.0742,-0.0875,-0.0886,-0.0909,-0.0945,-0.0947,-0.1073,-0.1075,-0.1071,-0.1059,0,0,0,-0.0614,-0.0579,-0.0617,-0.064,-0.0707,-0.0787,-0.0833,-0.0878,-0.089,-0.0943,-0.0947,-0.1073,-0.1075,-0.1069,-0.1057,-0.101,0,0,0,-0.0529,-0.0578,-0.0616,-0.0659,-0.0706,-0.0795,-0.0833,-0.0896,-0.0943,-0.0945,-0.1073,-0.1075,-0.1069,-0.1056,-0.1009,-0.0831,0,0,0,-0.0545,-0.0577,-0.0605,-0.0643,-0.0728,-0.0773,-0.0831,-0.0916,-0.097,-0.1034,-0.1038,-0.1071,-0.1057,-0.101,-0.094,0,0,0,0,-0.0579,-0.0605,-0.0632,-0.0691,-0.0765,-0.0823,-0.0891,-0.0931,-0.1038,-0.1007,-0.1109,-0.11,-0.1069,-0.0969,-0.1084,-0.1084,-0.1083,-0.1083,-0.1083,-0.0538,-0.0599,-0.0633,-0.0713,-0.0759,-0.0867,-0.0915,-0.0993,-0.1036,-0.1098,-0.1126,-0.1128,-0.1028,-0.1165,-0.1165,-0.1165,-0.1165,-0.1165,-0.1165,-0.0547,-0.0558,-0.062,-0.068,-0.0766,-0.0839,-0.0953,-0.1022,-0.109,-0.1145,-0.1115,-0.1011,-0.1166,-0.1166,-0.1165,-0.1165,-0.1165,-0.1165,-0.1165,-0.0516,-0.0518,-0.0573,-0.0641,-0.0744,-0.0857,-0.0888,-0.1013,-0.1098,-0.1104,-0.0981,-0.1113,-0.1076,-0.1097,-0.1096,-0.1096,-0.1096,-0.1096,-0.1096,-0.044,-0.0488,-0.0509,-0.0605,-0.0643,-0.0741,-0.0882,-0.0873,-0.0979,-0.0956,-0.1109,-0.1104,-0.1106,-0.1073,-0.1092,-0.1093,-0.1093,-0.1093,-0.1094,-0.0366,-0.0408,-0.042,-0.0446,-0.0536,-0.0599,-0.0707,-0.0707,-0.069,-0.0674,-0.085,-0.0863,-0.0832,-0.084,-0.0796,-0.0733,-0.0731,-0.0729,0,-0.0295,-0.0325,-0.0317,-0.0335,-0.0367,-0.0506,-0.0445,-0.0487,-0.0587,-0.0607,-0.0711,-0.0914,-0.0922,-0.0891,-0.0895,-0.0845,0,0,0,-0.0222,-0.0238,-0.0214,-0.0279,-0.0312,-0.0384,-0.0453,-0.0442,-0.0592,-0.0485,-0.0671,-0.0686,-0.0831,-0.1081,-0.1064,-0.1067,-0.1012,0,0]},{"header":{"parameterUnit":"m.s-1","parameterCategory":2,"la1":30.2992,"la2":30.254,"lo1":-89.0895,"lo2":-89.0443,"dy":0.0025,"dx":0.0025,"nx":19,"ny":19,"refTime":"2026-05-09T09:00:00:Z","depth":"4","parameterNumber":3,"parameterNumberName":"V-component_of_CURRENTS"},"data":[0,0,0,-0.0141,-0.0141,-0.0106,-0.0105,-0.0146,-0.0146,0,0,0,0,0,0,0,0,0,0,0,-0.0145,-0.0145,-0.0141,-0.0141,-0.0106,-0.0105,-0.0146,-0.0146,0,0,0,0,0,0,0,0,0,0,0,-0.0145,-0.0145,-0.0145,-0.014,-0.0106,-0.0105,-0.0145,-0.0149,0,0,0,0,0,0,0,0,0,0,-0.0172,-0.0179,-0.0145,-0.0145,-0.014,-0.0106,-0.0105,-0.0148,-0.0149,-0.0188,0,-0.0178,0,-0.0172,-0.0152,-0.0152,0,0,0,-0.0134,-0.0178,-0.0159,-0.0145,-0.014,-0.0106,-0.0119,-0.0148,-0.0149,-0.0189,-0.0178,-0.0179,-0.0173,-0.0152,-0.0153,-0.0234,-0.0235,0,0,-0.0136,-0.0152,-0.0158,-0.0159,-0.0128,-0.0121,-0.0118,-0.0147,-0.0156,-0.0178,-0.018,-0.0174,-0.0153,-0.0153,-0.0234,-0.0234,0,0,0,-0.0146,-0.0154,-0.0132,-0.0158,-0.015,-0.012,-0.0117,-0.0154,-0.0143,-0.018,-0.0174,-0.0153,-0.0154,-0.0234,-0.0234,-0.0273,0,0,0,-0.0147,-0.016,-0.0132,-0.0144,-0.0148,-0.0144,-0.0124,-0.014,-0.0144,-0.0174,-0.0153,-0.0155,-0.0233,-0.0234,-0.0271,-0.031,0,0,0,-0.0147,-0.0161,-0.0152,-0.0145,-0.0132,-0.0143,-0.0133,-0.014,-0.0141,-0.0152,-0.0155,-0.0233,-0.0234,-0.0269,-0.0306,-0.0259,0,0,0,-0.0171,-0.019,-0.0153,-0.0181,-0.0132,-0.0165,-0.0133,-0.016,-0.0174,-0.0154,-0.0233,-0.0234,-0.0269,-0.0304,-0.0258,-0.0179,0,0,0,-0.0214,-0.0195,-0.0215,-0.0181,-0.0231,-0.0169,-0.0223,-0.0219,-0.0196,-0.0228,-0.0229,-0.0271,-0.0306,-0.0259,-0.0223,0,0,0,0,-0.0242,-0.0249,-0.0263,-0.0275,-0.0281,-0.0286,-0.027,-0.0259,-0.0255,-0.0207,-0.0275,-0.0297,-0.0265,-0.0217,-0.0238,-0.0237,-0.0237,-0.0237,-0.0237,-0.0293,-0.03,-0.0346,-0.0354,-0.0377,-0.0372,-0.0368,-0.0344,-0.0321,-0.0317,-0.033,-0.033,-0.0283,-0.032,-0.032,-0.032,-0.032,-0.032,-0.032,-0.0344,-0.0366,-0.039,-0.0437,-0.045,-0.0486,-0.0473,-0.0438,-0.0398,-0.0383,-0.0348,-0.0266,-0.0324,-0.0324,-0.0323,-0.0323,-0.0322,-0.0322,-0.0322,-0.0357,-0.0375,-0.0402,-0.0467,-0.0522,-0.0544,-0.0534,-0.0512,-0.045,-0.0422,-0.0301,-0.0341,-0.0332,-0.0369,-0.0369,-0.0369,-0.0369,-0.0369,-0.0369,-0.0355,-0.0387,-0.0427,-0.0499,-0.0536,-0.0572,-0.0564,-0.0514,-0.0455,-0.035,-0.0413,-0.0345,-0.0343,-0.0334,-0.0369,-0.0369,-0.0369,-0.0369,-0.0369,-0.0367,-0.038,-0.0426,-0.0462,-0.0538,-0.0551,-0.0554,-0.0437,-0.0355,-0.0264,-0.0283,-0.0287,-0.0255,-0.0255,-0.0241,-0.025,-0.0249,-0.0248,0,-0.0365,-0.038,-0.0421,-0.0459,-0.0496,-0.0532,-0.041,-0.0356,-0.0288,-0.0279,-0.0358,-0.0387,-0.0387,-0.036,-0.0358,-0.0346,0,0,0,-0.0369,-0.0374,-0.0397,-0.0444,-0.0483,-0.041,-0.0382,-0.0328,-0.03,-0.0203,-0.0225,-0.0231,-0.0334,-0.0368,-0.0328,-0.0326,-0.0308,0,0]}]]